Location: Boiro
(42.6475°N, 8.8834°W)
Time: 00:17:12
(UTC+01:00)

Altair - Pass Details

Date: 04 December 2021
Orbit: 1501 x 1683 km, 47.2° (Epoch: 18 January)

Event Time Altitude Azimuth Distance (km) Brightness Sun altitude
Rises 16:13:48 0° 219° (SW) 4,812 12.1 14.4°
Reaches altitude 10° 16:17:03 10° 214° (SW) 3,803 12.4 14.0°
Maximum altitude 16:26:16 53° 141° (SE) 1,850 8.2 12.9°
Drops below altitude 10° 16:35:11 10° 68° (ENE) 3,688 9.0 11.8°
Sets 16:38:15 0° 64° (ENE) 4,658 9.4 11.4°
